Location: Chakepay
(13.3931°S, 72.1925°W)
Time: 16:51:53
(UTC+00:00)

GPS 2-18 Rocket1 - Pass Details

Date: 15 November 2019
Orbit: 460 x 517 km, 20.9° (Epoch: 13 December)

Event Time Altitude Azimuth Distance (km) Brightness Sun altitude
Rises 00:23:09 0° 247° (WSW) 2,479 8.3 -20.7°
Reaches altitude 10° 00:25:27 10° 237° (WSW) 1,609 6.9 -21.2°
Maximum altitude 00:28:52 34° 170° (S) 781 4.2 -21.9°
Enters shadow 00:29:08 34° 160° (SSE) 789 4.1 -22.0°
